THY8716 MMTG-MMTC

Flight info

Callsign THY8716
Flight time 2h 2m
Altitude 36000
Route URVOD UA552 VER UT61 AVALI UL655 CDR UJ46 TRC DCT AMALU DCT XOTIN
Aircraft B738/M-SDE2E3FGHIRWXY/LB1

Departure

Time 2026-04-27 21:07
Airport Angel Albino Corzo International Airport (MMTG)

Arrival

Time 2026-04-27 23:10
Airport Francisco Sarabia Tinoco International Airport (MMTC)
Time Latitude Longitude Altitude Speed Heading
2026-04-27 21:05 16.57049 -93.03162 1514 ft 14 kts 337°
2026-04-27 21:05 16.57121 -93.03162 1512 ft 10 kts
2026-04-27 21:05 16.57151 -93.03205 1513 ft 9 kts 239°
2026-04-27 21:06 16.57102 -93.03195 1514 ft 7 kts 142°
2026-04-27 21:06 16.57074 -93.03176 1514 ft 0 kts 149°
2026-04-27 21:06 16.57037 -93.03153 1514 ft 28 kts 149°
2026-04-27 21:06 16.56689 -93.02930 1515 ft 88 kts 148°
2026-04-27 21:07 16.56019 -93.02503 1510 ft 139 kts 149°
2026-04-27 21:07 16.55069 -93.01903 1548 ft 177 kts 148°
2026-04-27 21:07 16.53979 -93.01237 1995 ft 186 kts 149°
2026-04-27 21:07 16.52831 -93.00581 2597 ft 186 kts 149°
2026-04-27 21:08 16.51732 -92.99882 3149 ft 189 kts 146°
2026-04-27 21:08 16.50591 -92.99051 3358 ft 211 kts 145°
2026-04-27 21:08 16.49331 -92.98156 3510 ft 228 kts 146°
2026-04-27 21:08 16.47957 -92.97214 3638 ft 245 kts 147°
2026-04-27 21:09 16.46531 -92.96165 3810 ft 260 kts 135°
2026-04-27 21:09 16.45605 -92.94505 4011 ft 275 kts 103°
2026-04-27 21:09 16.45600 -92.92512 4540 ft 278 kts 75°
2026-04-27 21:09 16.46490 -92.90744 5141 ft 278 kts 46°
2026-04-27 21:10 16.48073 -92.89623 5760 ft 278 kts 18°
2026-04-27 21:10 16.49957 -92.89430 6379 ft 279 kts 349°
2026-04-27 21:10 16.51720 -92.90230 6965 ft 282 kts 321°
2026-04-27 21:10 16.52915 -92.91854 7500 ft 287 kts 297°
2026-04-27 21:11 16.53679 -92.93791 8071 ft 292 kts 291°
2026-04-27 21:11 16.54376 -92.95792 8636 ft 296 kts 292°
2026-04-27 21:11 16.55101 -92.97811 9228 ft 298 kts 293°
2026-04-27 21:11 16.55855 -92.99836 9809 ft 301 kts 294°
2026-04-27 21:12 16.56634 -93.01887 10255 ft 309 kts 295°
2026-04-27 21:12 16.57767 -93.03840 10359 ft 324 kts 316°
2026-04-27 21:12 16.59417 -93.05518 10503 ft 340 kts 319°
2026-04-27 21:12 16.61190 -93.07241 10617 ft 357 kts 319°
2026-04-27 21:13 16.63043 -93.09048 10729 ft 373 kts 319°
2026-04-27 21:13 16.64965 -93.10937 10882 ft 385 kts 318°
2026-04-27 21:13 16.66924 -93.12879 11137 ft 392 kts 318°
2026-04-27 21:13 16.68901 -93.14852 11496 ft 396 kts 317°
2026-04-27 21:14 16.70889 -93.16839 12036 ft 395 kts 318°
2026-04-27 21:14 16.72874 -93.18827 12507 ft 397 kts 318°
2026-04-27 21:14 16.74876 -93.20831 12973 ft 400 kts 319°
2026-04-27 21:14 16.76866 -93.22825 13443 ft 403 kts 318°
2026-04-27 21:15 16.78886 -93.24848 13966 ft 403 kts 318°
2026-04-27 21:15 16.80912 -93.26881 14385 ft 406 kts 318°
2026-04-27 21:15 16.82954 -93.28935 14802 ft 409 kts 319°
2026-04-27 21:15 16.85008 -93.31000 15248 ft 411 kts 319°
2026-04-27 21:16 16.87077 -93.33075 15699 ft 413 kts 319°
2026-04-27 21:16 16.89158 -93.35165 16093 ft 417 kts 319°
2026-04-27 21:16 16.91256 -93.37271 16488 ft 420 kts 319°
2026-04-27 21:16 16.93352 -93.39378 17117 ft 415 kts 319°
2026-04-27 21:17 16.95420 -93.41463 17759 ft 413 kts 319°
2026-04-27 21:17 16.97498 -93.43554 18159 ft 416 kts 319°
2026-04-27 21:17 16.99566 -93.45637 18463 ft 420 kts 319°
2026-04-27 21:17 17.01673 -93.47760 18837 ft 422 kts 319°
2026-04-27 21:18 17.03784 -93.49887 19236 ft 422 kts 319°
2026-04-27 21:18 17.05899 -93.52020 19605 ft 423 kts 318°
2026-04-27 21:18 17.08021 -93.54161 19974 ft 425 kts 319°
2026-04-27 21:18 17.10148 -93.56307 20333 ft 426 kts 318°
2026-04-27 21:19 17.12290 -93.58469 20651 ft 429 kts 318°
2026-04-27 21:19 17.14444 -93.60643 20991 ft 431 kts 318°
2026-04-27 21:19 17.16602 -93.62822 21337 ft 432 kts 318°
2026-04-27 21:20 17.20911 -93.67178 22004 ft 436 kts 318°
2026-04-27 21:20 17.23095 -93.69385 22325 ft 437 kts 318°
2026-04-27 21:20 17.25283 -93.71598 22644 ft 439 kts 318°
2026-04-27 21:20 17.27484 -93.73825 22981 ft 440 kts 318°
2026-04-27 21:21 17.29688 -93.76056 23269 ft 442 kts 318°
2026-04-27 21:21 17.31901 -93.78297 23551 ft 443 kts 318°
2026-04-27 21:21 17.34119 -93.80543 23814 ft 444 kts 318°
2026-04-27 21:21 17.36341 -93.82795 24070 ft 446 kts 317°
2026-04-27 21:22 17.38569 -93.85053 24337 ft 446 kts 317°
2026-04-27 21:22 17.40805 -93.87320 24605 ft 447 kts 317°
2026-04-27 21:22 17.43042 -93.89588 24867 ft 448 kts 317°
2026-04-27 21:22 17.45285 -93.91865 25122 ft 449 kts 317°
2026-04-27 21:23 17.47499 -93.94112 25355 ft 450 kts 317°
2026-04-27 21:23 17.49752 -93.96400 25590 ft 452 kts 317°
2026-04-27 21:23 17.52010 -93.98693 25833 ft 453 kts 317°
2026-04-27 21:23 17.54275 -94.00995 26072 ft 454 kts 317°
2026-04-27 21:24 17.56545 -94.03301 26311 ft 455 kts 317°
2026-04-27 21:24 17.58816 -94.05611 26533 ft 456 kts 317°
2026-04-27 21:24 17.61092 -94.07926 26748 ft 457 kts 317°
2026-04-27 21:24 17.63378 -94.10252 26962 ft 458 kts 317°
2026-04-27 21:25 17.65668 -94.12583 27179 ft 459 kts 317°
2026-04-27 21:25 17.67958 -94.14915 27392 ft 460 kts 317°
2026-04-27 21:25 17.70255 -94.17256 27606 ft 461 kts 316°
2026-04-27 21:25 17.72560 -94.19605 27811 ft 462 kts 316°
2026-04-27 21:26 17.74834 -94.21923 27992 ft 463 kts 316°
2026-04-27 21:26 17.77150 -94.24285 28185 ft 464 kts 316°
2026-04-27 21:26 17.79461 -94.26644 28461 ft 463 kts 316°
2026-04-27 21:26 17.81764 -94.28994 28799 ft 461 kts 316°
2026-04-27 21:27 17.84059 -94.31337 29164 ft 459 kts 316°
2026-04-27 21:27 17.86340 -94.33668 29475 ft 457 kts 316°
2026-04-27 21:27 17.87848 -94.35209 29666 ft 457 kts 316°
2026-04-27 21:27 17.90893 -94.38322 30035 ft 456 kts 316°
2026-04-27 21:28 17.93160 -94.40639 30328 ft 454 kts 316°
2026-04-27 21:28 17.95417 -94.42949 30634 ft 452 kts 316°
2026-04-27 21:28 17.97666 -94.45250 30934 ft 450 kts 316°
2026-04-27 21:28 17.99902 -94.47540 31216 ft 449 kts 316°
2026-04-27 21:29 18.02105 -94.49797 31496 ft 448 kts 316°
2026-04-27 21:29 18.04333 -94.52080 31798 ft 446 kts 316°
2026-04-27 21:29 18.06548 -94.54350 32104 ft 444 kts 316°
2026-04-27 21:29 18.08754 -94.56611 32396 ft 442 kts 316°
2026-04-27 21:30 18.10857 -94.58966 32652 ft 442 kts 309°
2026-04-27 21:30 18.12647 -94.61592 32896 ft 442 kts 306°
2026-04-27 21:30 18.14375 -94.64269 33190 ft 441 kts 305°
2026-04-27 21:30 18.16085 -94.66932 33504 ft 438 kts 306°
2026-04-27 21:31 18.17791 -94.69581 33760 ft 437 kts 306°
2026-04-27 21:31 18.19499 -94.72219 33980 ft 436 kts 306°
2026-04-27 21:31 18.21210 -94.74849 34169 ft 436 kts 306°
2026-04-27 21:31 18.22925 -94.77478 34357 ft 436 kts 306°
2026-04-27 21:32 18.24616 -94.80066 34560 ft 435 kts 306°
2026-04-27 21:32 18.26329 -94.82686 34733 ft 435 kts 306°
2026-04-27 21:32 18.28046 -94.85314 34942 ft 434 kts 306°
2026-04-27 21:32 18.29754 -94.87930 35092 ft 434 kts 306°
2026-04-27 21:33 18.31465 -94.90550 35273 ft 434 kts 306°
2026-04-27 21:33 18.33168 -94.93161 35487 ft 432 kts 306°
2026-04-27 21:33 18.34868 -94.95768 35692 ft 431 kts 306°
2026-04-27 21:33 18.36563 -94.98370 35809 ft 431 kts 306°
2026-04-27 21:34 18.39380 -95.02694 35810 ft 430 kts 306°
2026-04-27 21:34 18.43295 -95.08708 35805 ft 426 kts 306°
2026-04-27 21:35 18.46636 -95.13846 35807 ft 424 kts 306°
2026-04-27 21:35 18.49962 -95.18966 35795 ft 423 kts 306°
2026-04-27 21:36 18.53286 -95.24085 35807 ft 423 kts 306°
2026-04-27 21:36 18.56047 -95.28340 35810 ft 424 kts 306°
2026-04-27 21:37 18.59941 -95.34351 35789 ft 426 kts 306°
2026-04-27 21:37 18.63285 -95.39524 35800 ft 428 kts 306°
2026-04-27 21:38 18.66640 -95.44717 35802 ft 429 kts 306°
2026-04-27 21:38 18.69979 -95.49890 35804 ft 430 kts 306°
2026-04-27 21:39 18.73349 -95.55115 35793 ft 431 kts 306°
2026-04-27 21:39 18.76717 -95.60340 35793 ft 430 kts 306°
2026-04-27 21:40 18.80078 -95.65559 35797 ft 429 kts 306°
2026-04-27 21:40 18.83426 -95.70765 35794 ft 428 kts 306°
2026-04-27 21:41 18.86766 -95.75960 35790 ft 427 kts 306°
2026-04-27 21:41 18.90092 -95.81138 35797 ft 426 kts 306°
2026-04-27 21:42 18.93390 -95.86271 35799 ft 425 kts 306°
2026-04-27 21:42 18.96708 -95.91434 35800 ft 424 kts 306°
2026-04-27 21:43 19.00018 -95.96590 35806 ft 424 kts 306°
2026-04-27 21:43 19.03330 -96.01756 35828 ft 424 kts 305°
2026-04-27 21:44 19.06639 -96.06922 35826 ft 425 kts 305°
2026-04-27 21:44 19.09949 -96.12094 35819 ft 425 kts 305°
2026-04-27 21:45 19.13487 -96.17070 35817 ft 424 kts 315°
2026-04-27 21:45 19.18010 -96.20889 35813 ft 425 kts 329°
2026-04-27 21:46 19.23282 -96.23721 35819 ft 426 kts 332°
2026-04-27 21:46 19.28610 -96.26468 35822 ft 426 kts 332°
2026-04-27 21:47 19.33930 -96.29253 35817 ft 427 kts 332°
2026-04-27 21:47 19.39239 -96.32057 35820 ft 426 kts 332°
2026-04-27 21:48 19.44548 -96.34866 35815 ft 426 kts 332°
2026-04-27 21:48 19.49855 -96.37675 35816 ft 426 kts 332°
2026-04-27 21:49 19.55122 -96.40462 35821 ft 426 kts 332°
2026-04-27 21:49 19.60420 -96.43268 35826 ft 426 kts 332°
2026-04-27 21:50 19.65718 -96.46076 35820 ft 425 kts 332°
2026-04-27 21:50 19.71011 -96.48884 35826 ft 425 kts 331°
2026-04-27 21:51 19.76304 -96.51695 35821 ft 425 kts 331°
2026-04-27 21:51 19.81595 -96.54507 35841 ft 426 kts 331°
2026-04-27 21:52 19.86899 -96.57327 35836 ft 426 kts 331°
2026-04-27 21:52 19.92164 -96.60132 35853 ft 427 kts 331°
2026-04-27 21:53 19.97480 -96.62972 35809 ft 428 kts 331°
2026-04-27 21:53 20.02796 -96.65814 35820 ft 428 kts 330°
2026-04-27 21:54 20.08115 -96.68661 35793 ft 428 kts 330°
2026-04-27 21:54 20.13428 -96.71505 35798 ft 427 kts 330°
2026-04-27 21:55 20.18611 -96.74539 35797 ft 424 kts 322°
2026-04-27 21:55 20.22927 -96.78740 35804 ft 420 kts 312°
2026-04-27 21:56 20.28828 -96.85579 35791 ft 420 kts 311°
2026-04-27 21:57 20.32787 -96.90145 35789 ft 419 kts 311°
2026-04-27 21:57 20.36748 -96.94698 35797 ft 419 kts 311°
2026-04-27 21:58 20.40711 -96.99249 35786 ft 419 kts 311°
2026-04-27 21:58 20.44670 -97.03798 35799 ft 418 kts 311°
2026-04-27 21:59 20.48629 -97.08351 35790 ft 418 kts 311°
2026-04-27 21:59 20.52558 -97.12873 35928 ft 418 kts 311°
2026-04-27 22:00 20.56515 -97.17431 36091 ft 418 kts 311°
2026-04-27 22:00 20.60469 -97.21989 36248 ft 418 kts 311°
2026-04-27 22:01 20.64423 -97.26552 36387 ft 419 kts 311°
2026-04-27 22:01 20.68377 -97.31119 36471 ft 419 kts 311°
2026-04-27 22:01 20.70359 -97.33409 35804 ft 419 kts 311°
2026-04-27 22:02 20.72337 -97.35696 35789 ft 420 kts 311°
2026-04-27 22:02 20.76270 -97.40245 35805 ft 420 kts 311°
2026-04-27 22:03 20.80232 -97.44831 35789 ft 420 kts 311°
2026-04-27 22:03 20.84193 -97.49420 35793 ft 420 kts 311°
2026-04-27 22:04 20.88152 -97.54012 35780 ft 420 kts 311°
2026-04-27 22:04 20.92109 -97.58603 35779 ft 420 kts 311°
2026-04-27 22:05 20.96066 -97.63199 35774 ft 420 kts 311°
2026-04-27 22:05 21.00016 -97.67792 35782 ft 420 kts 311°
2026-04-27 22:06 21.03940 -97.72358 35781 ft 419 kts 311°
2026-04-27 22:06 21.07883 -97.76949 35767 ft 419 kts 311°
2026-04-27 22:07 21.11825 -97.81543 35766 ft 418 kts 311°
2026-04-27 22:07 21.15756 -97.86129 35778 ft 418 kts 310°
2026-04-27 22:08 21.19684 -97.90715 35744 ft 417 kts 311°
2026-04-27 22:08 21.23592 -97.95291 35752 ft 417 kts 310°
2026-04-27 22:09 21.27488 -97.99842 35771 ft 417 kts 310°
2026-04-27 22:09 21.31418 -98.04437 35759 ft 419 kts 310°
2026-04-27 22:10 21.35356 -98.09050 35747 ft 420 kts 310°
2026-04-27 22:10 21.39302 -98.13676 35740 ft 421 kts 310°
2026-04-27 22:11 21.42588 -98.17531 35744 ft 422 kts 310°
2026-04-27 22:11 21.46547 -98.22181 35738 ft 422 kts 310°
2026-04-27 22:12 21.51152 -98.27593 35730 ft 422 kts 310°
2026-04-27 22:12 21.55114 -98.32254 35731 ft 423 kts 310°
2026-04-27 22:13 21.58406 -98.36130 35723 ft 422 kts 310°
2026-04-27 22:13 21.62364 -98.40796 35721 ft 422 kts 310°
2026-04-27 22:14 21.66320 -98.45460 35725 ft 422 kts 310°
2026-04-27 22:14 21.70909 -98.50876 35711 ft 421 kts 310°
2026-04-27 22:15 21.74212 -98.54779 35715 ft 421 kts 310°
2026-04-27 22:15 21.78126 -98.59407 35714 ft 421 kts 310°
2026-04-27 22:16 21.82060 -98.64064 35708 ft 420 kts 310°
2026-04-27 22:16 21.85991 -98.68720 35712 ft 420 kts 310°
2026-04-27 22:17 21.89915 -98.73373 35713 ft 420 kts 309°
2026-04-27 22:17 21.93843 -98.78034 35713 ft 420 kts 309°
2026-04-27 22:18 21.97743 -98.82666 35711 ft 420 kts 309°
2026-04-27 22:18 22.01668 -98.87332 35712 ft 420 kts 309°
2026-04-27 22:19 22.05607 -98.92013 35712 ft 421 kts 309°
2026-04-27 22:19 22.09543 -98.96704 35723 ft 422 kts 309°
2026-04-27 22:20 22.13475 -99.01393 35721 ft 421 kts 309°
2026-04-27 22:20 22.17407 -99.06085 35716 ft 421 kts 309°
2026-04-27 22:21 22.21308 -99.10743 35742 ft 421 kts 309°
2026-04-27 22:21 22.25233 -99.15435 35743 ft 421 kts 309°
2026-04-27 22:22 22.29154 -99.20125 35742 ft 421 kts 309°
2026-04-27 22:22 22.33076 -99.24822 35760 ft 421 kts 309°
2026-04-27 22:23 22.36992 -99.29515 35757 ft 421 kts 309°
2026-04-27 22:23 22.40879 -99.34177 35772 ft 420 kts 309°
2026-04-27 22:24 22.44785 -99.38870 35764 ft 420 kts 310°
2026-04-27 22:24 22.48691 -99.43563 35781 ft 419 kts 309°
2026-04-27 22:25 22.52597 -99.48259 35778 ft 421 kts 309°
2026-04-27 22:25 22.56530 -99.52981 35771 ft 423 kts 309°
2026-04-27 22:26 22.60437 -99.57691 35787 ft 424 kts 309°
2026-04-27 22:26 22.64376 -99.62442 35772 ft 424 kts 309°
2026-04-27 22:27 22.68321 -99.67203 35774 ft 425 kts 309°
2026-04-27 22:27 22.72270 -99.71974 35771 ft 425 kts 309°
2026-04-27 22:28 22.76218 -99.76746 35773 ft 425 kts 309°
2026-04-27 22:28 22.80165 -99.81522 35769 ft 425 kts 309°
2026-04-27 22:29 22.84077 -99.86262 35760 ft 424 kts 308°
2026-04-27 22:29 22.88011 -99.91030 35762 ft 424 kts 308°
2026-04-27 22:30 22.91946 -99.95804 35761 ft 425 kts 308°
2026-04-27 22:30 22.95881 -100.00584 35766 ft 425 kts 308°
2026-04-27 22:31 22.99817 -100.05370 35761 ft 425 kts 308°
2026-04-27 22:31 23.03759 -100.10168 35758 ft 426 kts 308°
2026-04-27 22:32 23.07702 -100.14970 35735 ft 426 kts 308°
2026-04-27 22:32 23.11621 -100.19749 35752 ft 427 kts 308°
2026-04-27 22:33 23.15572 -100.24572 35741 ft 427 kts 308°
2026-04-27 22:33 23.19519 -100.29392 35722 ft 427 kts 308°
2026-04-27 22:34 23.23459 -100.34211 35722 ft 426 kts 308°
2026-04-27 22:34 23.27402 -100.39037 35715 ft 427 kts 308°
2026-04-27 22:35 23.31344 -100.43873 35723 ft 427 kts 308°
2026-04-27 22:35 23.35278 -100.48679 35702 ft 430 kts 308°
2026-04-27 22:36 23.39239 -100.53549 35717 ft 430 kts 308°
2026-04-27 22:36 23.43195 -100.58417 35733 ft 428 kts 308°
2026-04-27 22:37 23.47132 -100.63259 35736 ft 426 kts 308°
2026-04-27 22:37 23.51052 -100.68082 35742 ft 424 kts 308°
2026-04-27 22:38 23.54924 -100.72848 35755 ft 422 kts 308°
2026-04-27 22:38 23.58809 -100.77637 35751 ft 421 kts 308°
2026-04-27 22:39 23.62667 -100.82408 35759 ft 418 kts 308°
2026-04-27 22:39 23.66525 -100.87167 35781 ft 419 kts 308°
2026-04-27 22:40 23.70386 -100.91945 35800 ft 420 kts 308°
2026-04-27 22:40 23.74240 -100.96710 35771 ft 423 kts 308°
2026-04-27 22:41 23.78132 -101.01531 35767 ft 424 kts 308°
2026-04-27 22:41 23.82028 -101.06361 35786 ft 424 kts 308°
2026-04-27 22:42 23.85922 -101.11196 35786 ft 424 kts 308°
2026-04-27 22:42 23.89821 -101.16040 35781 ft 424 kts 308°
2026-04-27 22:43 23.93688 -101.20850 35777 ft 424 kts 308°
2026-04-27 22:43 23.97580 -101.25695 35801 ft 424 kts 308°
2026-04-27 22:44 24.01461 -101.30532 35789 ft 423 kts 307°
2026-04-27 22:44 24.05328 -101.35354 35792 ft 420 kts 308°
2026-04-27 22:45 24.09168 -101.40152 35793 ft 418 kts 308°
2026-04-27 22:45 24.12991 -101.44932 35794 ft 416 kts 308°
2026-04-27 22:46 24.16755 -101.49658 35794 ft 413 kts 307°
2026-04-27 22:46 24.20397 -101.54507 35804 ft 411 kts 306°
2026-04-27 22:47 24.23989 -101.59387 35809 ft 411 kts 306°
2026-04-27 22:47 24.27582 -101.64253 35809 ft 411 kts 306°
2026-04-27 22:48 24.31188 -101.69119 35818 ft 412 kts 306°
2026-04-27 22:48 24.34788 -101.73975 35804 ft 414 kts 306°
2026-04-27 22:49 24.38424 -101.78884 35452 ft 421 kts 306°
2026-04-27 22:49 24.40277 -101.81389 34928 ft 422 kts 306°
2026-04-27 22:49 24.42126 -101.83888 34287 ft 422 kts 306°
2026-04-27 22:49 24.43978 -101.86391 33600 ft 424 kts 306°
2026-04-27 22:50 24.45840 -101.88910 32867 ft 425 kts 306°
2026-04-27 22:50 24.47702 -101.91430 32176 ft 425 kts 306°
2026-04-27 22:50 24.49554 -101.93937 31710 ft 421 kts 305°
2026-04-27 22:50 24.50773 -101.95587 31371 ft 419 kts 305°
2026-04-27 22:51 24.53215 -101.98895 30735 ft 415 kts 305°
2026-04-27 22:51 24.55024 -102.01348 30240 ft 412 kts 305°
2026-04-27 22:51 24.56823 -102.03789 29755 ft 409 kts 305°
2026-04-27 22:51 24.58588 -102.06186 29177 ft 407 kts 305°
2026-04-27 22:52 24.60358 -102.08591 28683 ft 403 kts 305°
2026-04-27 22:52 24.62115 -102.10978 28177 ft 400 kts 305°
2026-04-27 22:52 24.63858 -102.13349 27697 ft 397 kts 305°
2026-04-27 22:52 24.65586 -102.15700 27226 ft 394 kts 305°
2026-04-27 22:53 24.67299 -102.18033 26750 ft 391 kts 305°
2026-04-27 22:53 24.69002 -102.20351 26284 ft 389 kts 305°
2026-04-27 22:53 24.70696 -102.22660 25804 ft 388 kts 305°
2026-04-27 22:53 24.72388 -102.24968 25332 ft 386 kts 306°
2026-04-27 22:54 24.74071 -102.27265 24844 ft 386 kts 306°
2026-04-27 22:54 24.75752 -102.29558 24376 ft 385 kts 306°
2026-04-27 22:54 24.77433 -102.31853 23901 ft 384 kts 306°
2026-04-27 22:54 24.79087 -102.34113 23426 ft 384 kts 306°
2026-04-27 22:55 24.80761 -102.36401 22893 ft 384 kts 306°
2026-04-27 22:55 24.82428 -102.38679 22415 ft 381 kts 305°
2026-04-27 22:55 24.84085 -102.40945 21941 ft 379 kts 305°
2026-04-27 22:55 24.85730 -102.43197 21478 ft 376 kts 305°
2026-04-27 22:56 24.87367 -102.45437 21018 ft 374 kts 305°
2026-04-27 22:56 24.88994 -102.47667 20564 ft 372 kts 305°
2026-04-27 22:56 24.90613 -102.49886 20090 ft 371 kts 305°
2026-04-27 22:56 24.92224 -102.52094 19629 ft 370 kts 305°
2026-04-27 22:57 24.93837 -102.54306 19129 ft 370 kts 304°
2026-04-27 22:57 24.95451 -102.56524 18552 ft 373 kts 304°
2026-04-27 22:57 24.97076 -102.58758 18032 ft 374 kts 304°
2026-04-27 22:57 24.98704 -102.60997 17437 ft 374 kts 304°
2026-04-27 22:58 25.00298 -102.63189 17065 ft 369 kts 304°
2026-04-27 22:58 25.00841 -102.63935 16909 ft 368 kts 304°
2026-04-27 22:59 25.10236 -102.76883 14334 ft 358 kts 305°
2026-04-27 23:00 25.13347 -102.81178 13538 ft 356 kts 304°
2026-04-27 23:00 25.14885 -102.83306 13190 ft 352 kts 304°
2026-04-27 23:00 25.16400 -102.85404 12884 ft 347 kts 305°
2026-04-27 23:01 25.17896 -102.87469 12594 ft 341 kts 305°
2026-04-27 23:01 25.19363 -102.89497 12331 ft 336 kts 306°
2026-04-27 23:01 25.20813 -102.91502 12052 ft 331 kts 306°
2026-04-27 23:01 25.22236 -102.93472 11794 ft 326 kts 306°
2026-04-27 23:02 25.23622 -102.95393 11527 ft 322 kts 307°
2026-04-27 23:02 25.25009 -102.97317 11261 ft 318 kts 306°
2026-04-27 23:02 25.26380 -102.99224 10957 ft 317 kts 306°
2026-04-27 23:02 25.27749 -103.01123 10655 ft 315 kts 307°
2026-04-27 23:03 25.29115 -103.03011 10344 ft 314 kts 308°
2026-04-27 23:03 25.30421 -103.04924 10066 ft 311 kts 300°
2026-04-27 23:03 25.31222 -103.07126 9802 ft 307 kts 288°
2026-04-27 23:03 25.31868 -103.09368 9519 ft 305 kts 288°
2026-04-27 23:04 25.32516 -103.11589 9251 ft 302 kts 289°
2026-04-27 23:04 25.33162 -103.13748 9030 ft 298 kts 289°
2026-04-27 23:04 25.33814 -103.15891 8732 ft 290 kts 289°
2026-04-27 23:04 25.34449 -103.17966 8451 ft 279 kts 289°
2026-04-27 23:05 25.35062 -103.19968 8117 ft 271 kts 290°
2026-04-27 23:05 25.35762 -103.21851 7764 ft 262 kts 303°
2026-04-27 23:05 25.37033 -103.23222 7433 ft 248 kts 323°
2026-04-27 23:05 25.38402 -103.24289 7030 ft 236 kts 326°
2026-04-27 23:06 25.39768 -103.25289 6488 ft 233 kts 329°
2026-04-27 23:06 25.41090 -103.26246 6184 ft 223 kts 330°
2026-04-27 23:06 25.42401 -103.27109 5763 ft 218 kts 333°
2026-04-27 23:06 25.43704 -103.27881 5419 ft 211 kts 333°
2026-04-27 23:07 25.44917 -103.28728 5182 ft 202 kts 327°
2026-04-27 23:07 25.45980 -103.29679 4971 ft 192 kts 322°
2026-04-27 23:07 25.46930 -103.30614 4868 ft 172 kts 322°
2026-04-27 23:07 25.47838 -103.31451 4828 ft 169 kts 324°
2026-04-27 23:08 25.48763 -103.32322 4750 ft 178 kts 321°
2026-04-27 23:08 25.49667 -103.33219 4615 ft 174 kts 316°
2026-04-27 23:08 25.50511 -103.34158 4554 ft 174 kts 314°
2026-04-27 23:08 25.51350 -103.35125 4444 ft 175 kts 315°
2026-04-27 23:09 25.52217 -103.36086 4272 ft 178 kts 315°
2026-04-27 23:09 25.53097 -103.37053 4117 ft 178 kts 314°
2026-04-27 23:09 25.53976 -103.38018 3925 ft 178 kts 316°
2026-04-27 23:09 25.54859 -103.38937 3810 ft 172 kts 314°
2026-04-27 23:10 25.55705 -103.39871 3703 ft 172 kts 316°
2026-04-27 23:10 25.56490 -103.40706 3695 ft 125 kts 316°
2026-04-27 23:10 25.56828 -103.41065 3693 ft 40 kts 316°
2026-04-27 23:10 25.57007 -103.41256 3693 ft 26 kts 316°
2026-04-27 23:11 25.57109 -103.41364 3692 ft 14 kts 323°
2026-04-27 23:11 25.57178 -103.41381 3691 ft 9 kts 351°
2026-04-27 23:11 25.57194 -103.41430 3691 ft 8 kts 222°
2026-04-27 23:11 25.57144 -103.41408 3692 ft 8 kts 135°
2026-04-27 23:12 25.57102 -103.41362 3703 ft 9 kts 135°
2026-04-27 23:12 25.57068 -103.41324 3693 ft 12 kts 135°
2026-04-27 23:12 25.56970 -103.41216 3692 ft 18 kts 136°
2026-04-27 23:12 25.56871 -103.41111 3695 ft 21 kts 136°
2026-04-27 23:13 25.56756 -103.40989 3691 ft 25 kts 136°
2026-04-27 23:13 25.56623 -103.40847 3697 ft 28 kts 136°
2026-04-27 23:13 25.56478 -103.40693 3690 ft 30 kts 136°
2026-04-27 23:13 25.56328 -103.40531 3697 ft 30 kts 135°
2026-04-27 23:14 25.56187 -103.40379 3692 ft 28 kts 136°
2026-04-27 23:14 25.56056 -103.40239 3692 ft 19 kts 136°
2026-04-27 23:14 25.56003 -103.40168 3691 ft 11 kts 109°
2026-04-27 23:14 25.56029 -103.40104 3693 ft 9 kts 34°
2026-04-27 23:15 25.56067 -103.40086 3690 ft 9 kts 22°
2026-04-27 23:15 25.56143 -103.40052 3690 ft 9 kts 20°
2026-04-27 23:15 25.56201 -103.40046 3690 ft 8 kts 354°
2026-04-27 23:15 25.56257 -103.40047 3690 ft 8 kts 16°
2026-04-27 23:16 25.56309 -103.40025 3690 ft 8 kts 21°
2026-04-27 23:16 25.56337 -103.39998 3690 ft 3 kts 79°
2026-04-27 23:16 25.56337 -103.39982 3690 ft 3 kts 96°
2026-04-27 23:16 25.56330 -103.39956 3690 ft 0 kts 110°